Hornbeck, LA

2:33 PM CST on February 10, 2016 (GMT -0600)
Fort Polk

Weather History for KAQV - October, 2011

Change the Weather History Date:

Wednesday, October 12, 2011

  Actual Average (KPOE) Record (KPOE)
Temperature  
Mean Temperature 71 °F -  
Max Temperature 82 °F 76 °F 88 °F (2015)
Min Temperature 60 °F 56 °F 46 °F (2000)
Cooling Degree Days 6    
Growing Degree Days 21 (Base 50)    
Moisture  
Dew Point 62 °F    
Average Humidity 83    
Maximum Humidity 97    
Minimum Humidity 49    
Precipitation  
Precipitation 0.02 in - - ()
Sea Level Pressure  
Sea Level Pressure 29.81 in    
Wind  
Wind Speed 2 mph (WSW)    
Max Wind Speed 10 mph    
Max Gust Speed 18 mph    
Visibility 8 miles    
Events Rain , Thunderstorm    
Averages and records for this station are not official NWS values.
T = Trace of Precipitation, MM = Missing Value Source: NWS Daily Summary

Daily Weather History Graph

Daily Weather History Graph

Search for Another Location

Airport or City:

Trip Planner

Search our weather history database for the weather conditions in past years. The results will help you decide how hot, cold, wet, or windy it might be!

Date:

Astronomy

Oct. 12, 2011 Rise Set
Actual Time 7:13 AM CDT 6:45 PM CDT
Civil Twilight 6:49 AM CDT 7:09 PM CDT
Nautical Twilight 6:21 AM CDT 7:37 PM CDT
Astronomical Twilight 5:53 AM CDT 8:05 PM CDT
Moon 6:55 PM CDT (10/12) 7:43 AM CDT (10/12)
Length of Visible Light 12h 19m
Length of Day
11h 31m
Full, 100% of the Moon is Illuminated
Oct 12
Full
Oct 19
Last Quarter
Oct 26
New
Nov 2
First Quarter
Nov 10
Full

Hourly Weather History & Observations

Time (CDT) Temp. Heat Index Dew Point Humidity Pressure Visibility Wind Dir Wind Speed Gust Speed Precip Events Conditions
12:56 AM 66.0 °F - 61.0 °F 84% 29.84 in 10.0 mi SSE 3.5 mph - N/A   Clear
1:56 AM 66.0 °F - 61.0 °F 84% 29.83 in 10.0 mi Calm Calm - N/A   Clear
2:56 AM 63.0 °F - 61.0 °F 93% 29.83 in 10.0 mi Calm Calm - N/A   Clear
3:56 AM 62.1 °F - 60.1 °F 93% 29.81 in 10.0 mi Calm Calm - N/A   Clear
4:56 AM 61.0 °F - 59.0 °F 93% 29.81 in 8.0 mi Calm Calm - N/A   Clear
5:56 AM 60.1 °F - 59.0 °F 96% 29.82 in 6.0 mi Calm Calm - N/A   Clear
6:56 AM 60.1 °F - 57.9 °F 93% 29.83 in 6.0 mi Calm Calm - N/A   Clear
7:56 AM 61.0 °F - 59.0 °F 93% 29.83 in 6.0 mi South 3.5 mph - N/A   Clear
8:56 AM 68.0 °F - 64.0 °F 87% 29.84 in 10.0 mi Calm Calm - N/A   Clear
9:56 AM 73.9 °F - 64.9 °F 73% 29.84 in 10.0 mi Calm Calm - N/A   Clear
10:56 AM 80.1 °F 81.2 °F 62.1 °F 54% 29.83 in 10.0 mi Variable 4.6 mph - N/A   Clear
11:56 AM 82.9 °F 83.7 °F 62.1 °F 49% 29.82 in 10.0 mi West 8.1 mph - N/A   Clear
12:56 PM 82.0 °F 82.7 °F 61.0 °F 49% 29.82 in 10.0 mi WNW 8.1 mph - N/A   Mostly Cloudy
1:56 PM 82.0 °F 83.0 °F 62.1 °F 51% 29.79 in 10.0 mi Variable 4.6 mph - N/A   Scattered Clouds
2:56 PM 73.9 °F - 61.0 °F 64% 29.81 in 10.0 mi NNW 10.4 mph 18.4 mph 0.00 in Rain Light Rain
3:56 PM 73.0 °F - 63.0 °F 71% 29.77 in 10.0 mi Calm Calm - 0.00 in   Overcast
4:56 PM 70.0 °F - 63.0 °F 78% 29.79 in 10.0 mi Variable 4.6 mph - 0.01 in Rain Light Rain
5:19 PM 68.0 °F - 64.4 °F 88% 29.78 in 10.0 mi West 5.8 mph - 0.01 in Thunderstorm Thunderstorm
5:56 PM 68.0 °F - 64.0 °F 87% 29.75 in 10.0 mi Calm Calm - 0.01 in   Clear
6:56 PM 66.0 °F - 64.0 °F 93% 29.76 in 10.0 mi Calm Calm - N/A   Clear
7:56 PM 66.0 °F - 64.0 °F 93% 29.78 in 10.0 mi Calm Calm - N/A   Mostly Cloudy
8:56 PM 64.0 °F - 63.0 °F 96% 29.80 in 7.0 mi Calm Calm - N/A   Clear
9:56 PM 63.0 °F - 61.0 °F 93% 29.82 in 5.0 mi Calm Calm - N/A   Clear
10:56 PM 62.1 °F - 61.0 °F 96% 29.82 in 4.0 mi Calm Calm - N/A   Clear
11:09 PM 62.6 °F - 60.8 °F 94% 29.83 in 2.5 mi Calm Calm - N/A   Clear
11:17 PM 62.6 °F - 60.8 °F 94% 29.82 in 4.0 mi Calm Calm - N/A   Clear
11:56 PM 61.0 °F - 60.1 °F 97% 29.81 in 5.0 mi Calm Calm - N/A   Clear